Terminal Aerodrome Forecast
Issued by NWS Charleston, WV

Current Version | Previous Version | Text Only | Print | Product List | Glossary Off
Versions: 1 2 3 4 5 6 7 8 9 10 11 12 13 14 15 16 17 18 19 20 21 22 23 24 25 26 27 28 29 30

000
FTUS41 KRLX 260617 CCB
TAFCRW
TAF COR
KCRW 260617Z 2606/2706 00000KT 6SM BR SCT200
     FM260800 00000KT 6SM BR BKN040
     FM261100 00000KT 4SM BR FEW001
     FM261300 00000KT P6SM BKN040
     FM261900 VRB03KT P6SM VCTS BKN040CB
     FM270200 00000KT 5SM BR VCTS BKN080CB
     FM270400 00000KT 5SM BR SCT080=

USA.gov is the U.S. government's official web portal to all federal, state and local government web resources and services.